Weather History for Hoonah, AK

Change the Weather History Date:

Thursday, February 21, 2013

  Actual Average Record
Temperature  
Mean Temperature 38 °F -  
Max Temperature 41 °F 35 °F 46 °F (1998)
Min Temperature 33 °F 28 °F 12 °F (2014)
Degree Days  
Heating Degree Days 27    
Moisture  
Dew Point 36 °F    
Average Humidity 93    
Maximum Humidity 100    
Minimum Humidity 79    
Precipitation  
Precipitation 0.01 in - - ()
Sea Level Pressure  
Sea Level Pressure 29.25 in    
Wind  
Wind Speed 8 mph (East)    
Max Wind Speed 10 mph    
Max Gust Speed -    
Visibility 9 miles    
Events Rain , Snow    
Averages and records for this station are not official NWS values.
T = Trace of Precipitation, MM = Missing Value Source: NWS Daily Summary

Daily Weather History Graph

Daily Weather History Graph

Search for Another Location

Airport:

Trip Planner

Search our weather history database for the weather conditions in past years. The results will help you decide how hot, cold, wet, or windy it might be!

Date:

Astronomy

Feb. 21, 2013 Rise Set
Actual Time 7:16 AM AKST 5:14 PM AKST
Civil Twilight 6:36 AM AKST 5:55 PM AKST
Nautical Twilight 5:50 AM AKST 6:41 PM AKST
Astronomical Twilight 5:05 AM AKST 7:26 PM AKST
Moon 1:01 PM AKST (2/21) 5:03 AM AKST (2/21)
Length of Visible Light 11h 18m
Length of Day
9h 58m
Waxing Gibbous, 85% of the Moon is Illuminated
Feb 21
Waxing Gibbous
Feb 25
Full
Mar 4
Last Quarter
Mar 11
New
Mar 19
First Quarter

Hourly Weather History & Observations

Time (AKST) Temp. Windchill Dew Point Humidity Pressure Visibility Wind Dir Wind Speed Gust Speed Precip Events Conditions
12:56 AM 36.9 °F 30.1 °F 36.0 °F 97% 29.29 in 10.0 mi East 9.2 mph - N/A   Overcast
1:56 AM 36.9 °F 29.6 °F 36.0 °F 97% 29.29 in 10.0 mi East 10.4 mph - N/A   Overcast
2:56 AM 37.4 °F 31.4 °F 35.6 °F 93% 29.30 in 10.0 mi East 8.1 mph - N/A   Overcast
3:17 AM 37.4 °F 30.8 °F 35.6 °F 93% 29.28 in 10.0 mi East 9.2 mph - N/A   Overcast
3:56 AM 36.9 °F 31.4 °F 34.9 °F 93% 29.30 in 10.0 mi East 6.9 mph - N/A   Overcast
4:29 AM 37.4 °F 32.1 °F 35.6 °F 93% 29.29 in 10.0 mi ENE 6.9 mph - N/A   Overcast
4:56 AM 36.9 °F 32.2 °F 34.9 °F 93% 29.30 in 10.0 mi East 5.8 mph - N/A   Overcast
5:08 AM 37.4 °F 32.1 °F 35.6 °F 93% 29.30 in 10.0 mi ENE 6.9 mph - N/A   Overcast
5:56 AM 37.4 °F 32.1 °F 35.6 °F 93% 29.30 in 10.0 mi ENE 6.9 mph - N/A   Overcast
6:56 AM 36.9 °F 32.2 °F 36.0 °F 97% 29.31 in 10.0 mi East 5.8 mph - 0.00 in   Overcast
7:56 AM 36.9 °F 31.4 °F 36.0 °F 97% 29.32 in 10.0 mi ENE 6.9 mph - N/A   Overcast
8:56 AM 36.0 °F 32.1 °F 36.0 °F 100% 29.33 in 10.0 mi East 4.6 mph - N/A   Partly Cloudy
9:56 AM 39.9 °F 35.1 °F 36.9 °F 89% 29.33 in 10.0 mi East 6.9 mph - N/A   Mostly Cloudy
10:08 AM 39.2 °F 34.2 °F 37.4 °F 93% 29.33 in 10.0 mi East 6.9 mph - N/A   Overcast
10:56 AM 39.9 °F 35.8 °F 36.9 °F 89% 29.34 in 9.0 mi ENE 5.8 mph - 0.00 in Rain Light Rain
11:56 AM 41.0 °F 37.1 °F 37.4 °F 87% 29.33 in 10.0 mi East 5.8 mph - N/A   Mostly Cloudy
12:56 PM 41.9 °F 37.5 °F 36.0 °F 79% 29.33 in 10.0 mi SSE 6.9 mph - 0.00 in   Mostly Cloudy
1:56 PM 41.9 °F 38.2 °F 36.0 °F 79% 29.32 in 10.0 mi ESE 5.8 mph - N/A   Mostly Cloudy
2:56 PM 39.2 °F 37.0 °F 35.6 °F 87% 29.31 in 4.0 mi ESE 3.5 mph - N/A Rain Light Rain
3:56 PM 37.9 °F 32.1 °F 36.9 °F 96% 29.30 in 8.0 mi ENE 8.1 mph - 0.00 in Rain Light Rain
4:56 PM 37.9 °F 34.4 °F 36.0 °F 93% 29.28 in 10.0 mi East 4.6 mph - 0.00 in   Overcast
5:43 PM 37.4 °F 32.8 °F 35.6 °F 93% 29.26 in 10.0 mi ESE 5.8 mph - 0.00 in Rain Light Rain
5:56 PM 37.4 °F 33.8 °F 35.6 °F 93% 29.25 in 10.0 mi ENE 4.6 mph - N/A Rain Light Rain
6:56 PM 36.9 °F 32.2 °F 36.0 °F 97% 29.22 in 7.0 mi ENE 5.8 mph - 0.01 in Rain Light Rain
7:56 PM 36.9 °F 33.1 °F 34.9 °F 93% 29.18 in 10.0 mi East 4.6 mph - 0.00 in   Overcast
8:12 PM 37.4 °F 31.4 °F 35.6 °F 93% 29.17 in 10.0 mi ENE 8.1 mph - N/A   Overcast
8:32 PM 37.4 °F 31.4 °F 35.6 °F 93% 29.15 in 10.0 mi East 8.1 mph - N/A   Overcast
8:56 PM 35.6 °F 29.2 °F 35.6 °F 100% 29.13 in 10.0 mi East 8.1 mph - N/A   Mostly Cloudy
9:16 PM 37.4 °F 30.3 °F 35.6 °F 93% 29.12 in 10.0 mi East 10.4 mph - N/A   Overcast
9:56 PM 36.0 °F 28.5 °F 34.9 °F 96% 29.09 in 8.0 mi East 10.4 mph - N/A   Mostly Cloudy
10:56 PM 36.0 °F 29.6 °F 34.9 °F 96% 29.05 in 8.0 mi East 8.1 mph - 0.00 in   Overcast
11:56 PM 33.8 °F 26.4 °F 33.8 °F 100% 29.00 in 3.0 mi East 9.2 mph - N/A Snow Light Snow